Погода в Серафимовиче

Погода в Серафимовиче : погода сейчас, прогноз погоды и архив. Всё, что Вы хотите узнать о погоде в Серафимовиче!

Поиск расширенной информации на нашем сайте:

Другие новости

Новости СМИ2

Главная страница сайта

Новости сайта

02.10.2013

Напоминаем, что на нашем новом сайте вы можете получить высокодетализированные прогнозы погоды по пунктам России, СНГ и мира (включающие важные для авиации метеовеличины, такие как направление и скорость ветра, видимость, явления погоды, количество и форма облачности, нижняя и верхняя граница облачности), а также ознакомиться с разнообразными материалами по авиационной метеорологии и подборкой полезных ссылок на эту тему.

Сайт Метеоцентр.Азия посвящён разработке технологий оптимизации авиаметеорологического обслуживания, включая проектирование и перспективное создание нескольких автоматизированных авиаметеорологических систем:
- система выпуска высокодетальных прогностических карт явлений погоды для нижнего воздушного пространства по России и ближнему зарубежью;
- система верификации прогнозов TAF (выпускаемых синоптиками официальных АМСГ РФ и ближнего зарубежья) и AUTOTAF (выпускаемых сайтом Метеоцентр.Азия) - выявление ошибок, онлайн-сопоставление с фактической погодой METAR, автоматическое внесение коррективов в прогнозы при резком отклонении фактической погоды от прогноза, подсчёт оправдываемости прогнозов по элементам и в целом;
- система обработки, анализа и отображения авиаметеорологической информации для применения провайдерами метеорологической информации.


Погода в Серафимовиче - сегодня

Время (UTC), дата Ветер
(°,м/с) 
Видим.   Явления Облачность Т
(°С)
Тd
(°С)
f(%) Тe
(°С)
Pmin
(гПа)
dP
(гПа)
Po
(мм)
O2
(г/м3)
Тmin Tmax R s Состояние
почвы
09 20.05.17 030 (СВ) 20000 м    10/10 600 м кучево-дожд. 
[Cb calv]
+18.5 +10.6 60 +21  1009.2  -1.6  746  280           
18 20.05.17 250 (З) 20000 м  в посл. час дождь  10/10 300 м 
[Frnb|Ns]
+12.7 +11.8 94 +17  1006.1  -1.7  743  284           
21 20.05.17 260 (З) 20000 м  слаб. дождь  10/10 300 м 
[Frnb|Ns]
+13.1 +12.3 95 +19  1004.4  -1.7  742  283           
06 21.05.17 260 (З) 4000 м  слаб. дождь  10/10 300 м 
[Frnb|Ns]
+13.4 +12.5 94 +19  999.8  -1.1  739  281           
09 21.05.17 310 (СЗ) 20000 м  слаб. дождь  10/10 300 м 
[Frnb|Ns]
+13.6 +12.4 92 +18  1000.8  740  281           
18 21.05.17 270 (З) 20000 м  {ливн. осадки}  10/0 средняя 
[Ac und]
+15.1 +13 87 +22  1003.2  741  280           
21 21.05.17 260 (З) 20000 м  в посл. час ливневой дождь  10/10 300 м кучево-дожд. 
[Cb calv]
+14 +12.4 90 +20  1003.6  0.3  742  282           
06 22.05.17 250 (З) 10 км  слаб. ливневой дождь  10/10 300 м кучево-дожд. 
[Cb cap]
+13.5 +12.6 94 +20  1003.7  0.6  742  282           
09 22.05.17 350 (С) 10 км  слаб. ливневой дождь  10/10 300 м кучево-дожд. 
[Cb cap]
+10.5 +9.7 95 +11  1005.5  1.6  743  286           
18 22.05.17 270 (З) 20000 м    8/0 средняя 
[Ac trans]
+10.2 +6.1 76 +10  1010  1.6  746  289           
21 22.05.17 250 (З) 20000 м    ясно 
+8.4 +5.7 83 +8  1010.7  0.6  747  291           
00 23.05.17 270 (З) 20000 м    3/0 верхняя 
[Ci sp]
+6.5 +3.6 82 +6  1011.7  0.9  747  294           
06 23.05.17 350 (С) 20000 м    1/0 верхняя 
[Ci sp]
+13 +2.2 48 +13  1014.7  1.7  750  288           
18 23.05.17 170 (Ю) 20000 м    3/0 верхняя 
[Ci fib]
+12.5 +1.3 46 +12  1017.1  1.2  752  289           
21 23.05.17 180 (Ю) 20000 м    3/0 верхняя 
[Ci fib]
+12.1 +0.3 44 +11  1017.6  0.5  752  290           
00 24.05.17 220 (ЮЗ) 20000 м    3/0 верхняя 
[Ci fib]
+11.3 +0.3 47 +11  1018  0.3  752  291           
06 24.05.17 220 (ЮЗ) 20000 м    8/4 600 м кучево-дожд., средняя 
[Cb calv|Ac trans]
+15.7 +3.9 45 +16  1018.7  0.2  753  286           
09 24.05.17 220 (ЮЗ) 20000 м    4/0 верхняя 
[Ci sp]
+20.7 +5.9 38 +21  1018.1  -0.4  753  281           
12 24.05.17 240 (ЮЗ) 20000 м    1/1 600 м 
[Cu hum]
+22.7 +5.4 33 +23  1017.2  -0.8  752  279           
18 24.05.17 220 (ЮЗ) 20000 м    4/4 600 м кучево-дожд. 
[Cb calv]
+18.3 +6.2 45 +19  1017.7  752  283           
21 24.05.17 220 (ЮЗ) 4{10}  20000 м    10/10 600 м кучево-дожд. 
[Cb calv]
+16.5 +5 46 +17  1018.4  0.6  753  285           
06 25.05.17 220 (ЮЗ) 20000 м  {ливн. осадки}  9/8 300 м кучево-дожд., средняя 
[Cb calv|Ac trans]
+15.7 +10.6 72 +19  1018.7  0.6  753  285           
09 25.05.17 250 (З) 20000 м    9/5 300 м средняя 
[Cu med, cong|Ac trans]
+20.8 +11.8 56 +24  1018.3  0.1  753  280           
12 25.05.17 250 (З) 20000 м    9/3 600 м средняя, верхняя 
[Cu med, cong|Ac trans|Ci sp]
+21.9 +10.1 47 +23  1017.4  -0.9  752  279           
18 25.05.17 210 (ЮЗ) 20000 м    6/0 средняя 
[Ac lent]
+16.4 +9.4 63 +17  1017.5  0.5  752  284           
Время (UTC), дата Ветер
(°,м/с) 
Видим.   Явления Облачность Т
(°С)
Тd
(°С)
f(%) Тe
(°С)
Pmin
(гПа)
dP
(гПа)
Po
(мм)
O2
(г/м3)
Тmin Tmax R s Состояние
почвы

Для получения пояснительной информации подведите курсор к названию столбца.

ПОГОДА в Серафимовиче - архив

Всё, что Вы хотите узнать о погоде в Серафимовиче - удобно и подробно!

Выберите нужную дату (начиная с 1 января 2015* года) и нажмите кнопку "Найти".
Будут отображены архивные сводки погоды по пункту Серафимович, начиная с указанной даты.


Отображать данные в формате CSV (для использования в таблицах Excel)


Внимание! Наш архив погоды предназначен исключительно для личного некоммерческого использования в познавательных целях. Если Вам необходимы официальные справки о состоянии погоды (для производственных, юридических, коммерческих и т.п. целей), обращайтесь в органы Росгидромета.

*Примечание: данная дата относится к архиву по метеостанциям СССР (Россия, СНГ, Балтия).
Архив по метеостанциям Зарубежной Европы и Азии (кроме Китая) хранится 10 дней, по другим регионам земного шара (Китай, Африка, Америка, Австралия, Океания) - 1 день.

Серафимович - район местоположения метеостанции


Название, широта, долгота, высота метеостанции:
Серафимович 49.6°ш. 42.8°д. 200 м над ур. моря [Российская Федерация]

Дополнительная информация

В oтличие oт бoльшинства пoгoдных сайтoв мы публикуем пoдрoбную метеoинфoрмацию в детальнoм прoфессиoнальнoм фoрмате.

Характеристики температуры и влажнoсти вoздуха измеряются на высoте 2 м в тени вдали oт зданий и деревьев.
Скoрoсть ветра измеряется на высoте 10 м (на урoвне рoста челoвека скoрoсть ветра ниже в 1.5-2 раза). Если метеoстанция нахoдится в гoрoде или в лесу, тo скoрoсть ветра занижена на 2-4 м/с пo сравнению с oткрытым местoм. Скoрoсть ветра над акватoриями крупных рек и oзёр, а также на вершинах хoлмoв на 2-5 м/с выше, чем в oбычных услoвиях.
Атмoсфернoе давление в разных тoчках местнoсти мoжет значительнo oтличаться oт давления на метеoстанции, в зависимoсти oт услoвий рельефа (при пoдъёме на 10 м давление пoнижается примернo на 1 мм рт.ст.).